Location: Anhausen
(48.6200°N, 10.1475°E)
Time: 05:23:15
(UTC+00:00)

Daily predictions for brighter satellites

Satellite Brightness Start Highest point End
(mag) Time Altitude Azimuth Time Altitude Azimuth Time Altitude Azimuth
CENTAUR R/B 4.5 01:52:52 29° NNE 01:52:52 29° NNE 01:59:51 10° ENE
ADEOS Rocket 4.5 02:04:24 10° NNE 02:08:51 38° NE 02:08:51 38° NE
USA 234 4.2 02:17:52 10° E 02:22:27 41° ENE 02:22:27 41° ENE
ACS3 Solar Sail 3.6 02:21:42 10° NNE 02:24:02 24° NNE 02:24:02 24° NNE
Cosmos 2219 Rocket 4.5 02:44:42 16° NNE 02:44:42 16° NNE 02:45:50 10° NNE
NOSS 0 Rocket 4.4 03:04:17 56° NE 03:04:17 56° NE 03:09:06 10° NNE
Cosmos 1802 Rocket 4.2 03:00:26 10° N 03:06:46 67° ENE 03:12:58 10° SSE
COSMOS 2428 3.9 03:21:07 32° N 03:21:07 32° N 03:24:15 10° NNE
Meteor 2-5 Rocket 3.9 03:19:35 70° ESE 03:19:38 70° E 03:25:24 10° NNE
Cosmos 1980 3.9 03:22:37 67° NE 03:22:37 67° NE 03:27:35 10° NNE
CZ-2C R/B 3.0 03:17:12 10° NNE 03:21:33 56° ENE 03:21:33 56° ENE
Cosmos 2123 Rocket 3.9 03:24:37 64° SSE 03:25:37 81° E 03:31:50 10° N
USA 267 3.6 03:22:55 10° ENE 03:29:22 58° SE 03:31:27 41° SSW
Cosmos 2016 Rocket 4.0 03:23:58 10° N 03:30:23 82° E 03:36:43 10° S
Cosmos 2278 Rocket 4.2 03:37:43 16° S 03:37:43 16° S 03:38:47 10° S
Cosmos 1190 Rocket 4.2 03:34:26 68° NE 03:34:43 70° ENE 03:39:55 10° SSE
NOSS 3-1 (A) 3.3 03:37:27 59° NNE 03:37:27 59° NNE 03:42:25 10° NE
Cosmos 1943 Rocket 4.4 03:41:44 12° S 03:41:44 12° S 03:42:04 10° S
Cosmos 2237 Rocket 2.1 03:37:34 85° N 03:37:34 85° N 03:43:05 10° NNE
ARGOS 3.1 03:35:29 10° NNE 03:40:21 71° N 03:40:21 71° N
ATLAS 3B R/B 4.4 03:36:53 10° S 03:43:29 35° ESE 03:50:24 10° NE
CENTAUR R/B 3.7 03:39:59 25° NNW 03:44:53 56° NE 03:53:58 10° ESE
Cosmos 2369 Rocket 3.5 03:41:31 17° N 03:45:20 38° NE 03:50:37 10° ESE
Cosmos 2056 Rocket 4.4 03:42:01 10° S 03:47:11 48° ESE 03:52:21 10° NNE
Cosmos 1954 Rocket 4.0 03:47:44 50° N 03:49:03 74° ENE 03:54:12 10° SSE
Cosmos 2360 Rocket 4.4 03:52:38 12° NNW 03:52:38 12° NNW 03:53:45 10° N
Orbus 7S? 3.7 03:51:03 72° SSE 03:51:08 73° SE 03:54:26 10° ENE
SJ 16-02 1.5 03:51:39 65° ENE 03:51:41 65° ENE 03:55:55 10° SSE
Meteor 2-16 Rocket 4.3 03:50:09 26° SSW 03:53:44 76° W 03:59:54 10° N
ADEOS Rocket 3.8 03:50:10 10° N 03:55:46 40° NW 03:55:46 40° NW
Cosmos 2322 Rocket 4.4 03:57:46 11° NNW 03:57:46 11° NNW 03:58:42 10° N
Cosmos 2333 Rocket 4.4 03:59:30 11° NNW 03:59:30 11° NNW 04:00:20 10° N
COSMO-SKYMED 1 4.1 03:56:13 10° SE 03:59:55 33° ENE 04:03:38 10° N
Cosmos 1371 Rocket 4.3 04:01:19 10° S 04:06:33 66° ESE 04:11:51 10° NNE
USA 234 3.2 04:00:20 10° SE 04:06:55 85° SW 04:09:48 37° WNW
Cosmos 968 Rocket 4.5 04:05:05 11° NNW 04:09:56 45° ENE 04:14:57 10° SE
ACS3 Solar Sail 3.0 04:05:10 10° N 04:08:09 24° NNW 04:08:09 24° NNW
Cosmos 371 Rocket 3.2 04:11:28 38° NNW 04:13:22 86° WSW 04:18:12 10° SSE
USA 306 2.7 04:15:46 57° ENE 04:15:46 57° ENE 04:18:52 10° ENE
CZ-3 R/B 4.1 04:06:01 10° SW 04:16:57 21° SSW 04:22:27 10° SE
Cosmos 2292 Rocket 4.2 04:16:36 29° SW 04:19:09 56° WNW 04:25:29 10° N
CZ-4 R/B 4.4 04:14:25 10° NNE 04:19:15 60° ESE 04:23:56 10° S
Cosmos 304 Rocket 3.6 04:20:02 39° NW 04:21:46 71° WSW 04:26:30 10° SSE
Cosmos 2061 Rocket 3.9 04:16:11 10° NNW 04:22:19 64° W 04:28:25 10° S
Meteor 1-24 Rocket 4.3 04:23:19 35° NW 04:23:19 35° NW 04:27:38 10° N
Cosmos 1400 Rocket 3.9 04:19:31 10° N 04:23:02 39° ENE 04:26:29 10° SE
Cosmos 1656 Rocket 3.6 04:20:08 27° NW 04:23:21 73° WSW 04:28:59 10° SSE
Gbstr 26 Del rocket 3.7 04:22:01 42° WNW 04:23:38 62° N 04:29:39 10° E
Lacrosse 5 rocket 2.2 04:23:30 29° N 04:23:52 29° NNE 04:26:51 10° E
Lacrosse 4 Rocket 3.8 04:22:20 10° N 04:24:53 16° NE 04:27:24 10° ENE
Cosmos 2219 Rocket 4.2 04:26:24 13° NNW 04:26:24 13° NNW 04:28:26 10° N
Aureole 3 Rocket 3.9 04:22:47 10° N 04:27:51 85° E 04:34:58 10° S
Cosmos 1725 Rocket 4.5 04:24:45 10° NNW 04:30:26 36° W 04:36:05 10° SSW
Cosmos 1869 2.9 04:31:07 62° WSW 04:31:07 62° WSW 04:34:26 10° S
In-Cosmos 22 Rocket 4.4 04:25:12 10° S 04:31:00 77° E 04:36:48 10° NNE
Cosmos 2233 Rocket 4.1 04:26:49 10° NNW 04:32:51 49° W 04:38:48 10° SSW
Helios 1A Rocket 2.2 04:33:53 10° SSE 04:37:15 83° WSW 04:38:59 27° NNW
Cosmos 2251 Rocket 4.2 04:36:55 32° W 04:37:24 33° WSW 04:42:08 10° SSW
Cosmos 1447 Rocket 4.4 04:32:51 10° SSW 04:39:06 75° W 04:45:28 10° N
NOSS 3-1 (C) 4.4 04:37:44 22° NW 04:39:16 25° NNW 04:44:28 10° NE
NOSS 8 (A) 4.5 04:38:31 37° WSW 04:39:56 67° NW 04:43:14 10° NE
Cosmos 1378 Rocket 3.8 04:35:56 10° S 04:40:10 69° E 04:44:27 10° NNE
Cosmos 1420 Rocket 4.3 04:37:58 27° WSW 04:40:20 43° WNW 04:45:26 10° NNE
Cosmos 1624 Rocket 3.9 04:35:14 10° SSW 04:40:23 68° WNW 04:45:34 10° NNE
SL-16 R/B 2.2 04:35:01 10° SSW 04:40:43 86° ESE 04:46:27 10° NNE
NOSS 2-2 (C) 4.2 04:39:27 21° NNW 04:41:44 49° NE 04:46:34 10° ESE
Cosmos 332 Rocket 4.5 04:37:20 10° NNW 04:42:04 54° ENE 04:46:44 10° SE
Cosmos 2242 Rocket 3.4 04:37:53 10° SSW 04:42:16 74° W 04:46:43 10° N
SL-08 RB Rocket 4.5 04:40:24 10° N 04:44:00 29° WNW 04:44:00 29° WNW
Cosmos 1464 Rocket 4.3 04:38:41 10° N 04:44:51 68° ENE 04:50:56 10° SSE
Okean 1 Rocket 4.1 04:41:59 10° N 04:46:09 45° ENE 04:50:17 10° SSE
Cosmos 1812 1.9 04:46:27 56° W 04:46:27 56° W 04:49:17 10° S
Cosmos 2346 Rocket 4.4 04:45:24 10° SSW 04:51:25 59° WNW 04:57:26 10° N
Cosmos 1452 Rocket 4.4 04:51:11 10° S 04:56:14 52° ESE 05:01:18 10° NNE
CZ-2C R/B 3.6 04:56:01 10° N 04:59:53 23° WNW 05:00:45 22° WNW
Cosmos 1850 Rocket 4.0 04:55:24 10° NNW 05:00:36 88° E 05:05:46 10° SSE
Cosmos 1939 Rocket 3.8 04:58:05 10° N 05:01:05 24° WNW 05:01:05 24° WNW
NOSS 2-2 (D) 4.4 05:00:57 13° NNW 05:04:00 43° NE 05:08:39 10° ESE
COSMOS 2428 4.3 05:03:07 15° NW 05:04:08 16° NW 05:07:29 10° N
IGS 5A 4.5 05:01:47 10° NNE 05:05:41 47° E 05:09:34 10° S
Cosmos 2084 4.1 05:03:54 13° NNW 05:07:18 48° NE 05:11:12 10° ESE
Cosmos 1331 Rocket 4.1 05:05:12 10° SSW 05:10:27 84° ESE 05:15:43 10° NNE
USA 229 DEB 3.5 05:06:22 10° SW 05:12:19 87° NW 05:19:06 10° NE
USA 267 3.4 05:06:00 10° NE 05:12:26 62° NNW 05:18:49 10° WSW
USA 229 3.5 05:06:35 10° SW 05:12:32 88° NW 05:19:18 10° NE
Cosmos 2263 4.2 05:07:06 10° NNW 05:12:53 74° WSW 05:18:37 10° SSE
NOSS 3-2 (A) 4.2 05:06:36 10° NW 05:13:45 75° NE 05:22:29 10° SE
Meteor 1-11 4.3 05:09:25 10° S 05:15:17 89° ESE 05:21:10 10° NNE
Cosmos 1072 Rocket 4.4 05:10:40 10° NNW 05:16:44 68° W 05:22:51 10° S
Cosmos 2237 Rocket 3.5 05:19:25 15° WNW 05:22:16 21° NW 05:26:30 10° N
SMAP 4.4 05:18:05 10° NNE 05:22:35 45° E 05:27:02 10° S
CBERS-1 4.3 05:18:03 10° NNE 05:23:12 76° ESE 05:28:18 10° S
Okean 2 Rocket 3.0 05:19:31 10° NNW 05:23:50 62° W 05:28:08 10° S
Cosmos 2297 4.0 05:18:35 10° NW 05:24:00 48° WSW 05:29:21 10° S
NOSS 3-1 (A) 4.5 05:24:50 14° WNW 05:28:28 25° NNW 05:33:43 10° NE
SJ 16-02 3.0 05:28:15 13° W 05:29:15 14° W 05:31:32 10° SW
Cosmos 2369 Rocket 2.6 05:24:05 10° NW 05:29:26 43° WSW 05:34:46 10° S
Cosmos 2056 Rocket 4.3 05:24:42 10° WSW 05:29:27 30° NW 05:34:12 10° N
Cosmos 1943 3.3 05:26:01 10° SSW 05:31:37 81° ESE 05:37:15 10° NNE
ATLAS 3B R/B 3.0 05:26:14 10° SW 05:33:49 71° NW 05:41:45 10° NE
Cosmos 1315 Rocket 4.4 05:31:00 10° N 05:34:35 35° ENE 05:38:07 10° SE
COSMO-SKYMED 1 3.4 05:31:48 10° SSW 05:35:16 26° W 05:38:46 10° NW
CENTAUR R/B 3.5 05:27:45 10° NW 05:35:55 57° WSW 05:45:02 10° SSE
Iridium 45 4.4 05:33:40 10° N 05:36:51 78° E 05:40:03 10° S
IRS-1D 4.3 05:33:19 10° N 05:37:30 28° WNW 05:41:40 10° WSW
Cosmos 2228 4.4 05:35:16 10° N 05:39:17 39° ENE 05:43:17 10° SE
Cosmos 292 Rocket 3.8 05:37:03 10° NNW 05:41:53 89° WSW 05:46:39 10° SSE
USA 306 3.2 05:41:00 11° WNW 05:44:08 38° N 05:47:51 10° ENE
BREEZE-M DEB (TANK) 3.4 05:41:51 10° SW 05:44:31 44° SSE 05:50:02 10° E
Cosmos 1025 Rocket 3.2 05:40:49 10° SSW 05:45:03 50° WNW 05:49:19 10° N
BREEZE-M DEB (TANK) 4.0 05:35:46 10° W 05:45:18 61° SSW 05:48:51 10° ESE
Cosmos 1674 Rocket 4.2 05:46:11 10° SW 05:50:12 33° WNW 05:54:15 10° N
USA 234 4.3 05:44:56 10° S 05:50:30 29° SW 05:56:05 10° WNW
Cosmos 968 Rocket 4.4 05:46:57 10° NW 05:51:25 29° W 05:55:52 10° SSW
